Time,TemperatureF,DewpointF,PressureIn,WindDirection,WindDirectionDegrees,WindSpeedMPH,WindSpeedGustMPH,Humidity,HourlyPrecipIn,Conditions,Clouds,dailyrainin,SoftwareType,DateUTC
2013-12-08 00:03:00,43.2,29.0,30.16,WNW,289,0.0,0.0,57,0.00,,---,0.00,VWS V15.00,2013-12-08 07:03:00,
2013-12-08 00:08:00,43.1,28.9,30.16,WNW,289,0.0,1.0,57,0.00,,---,0.00,VWS V15.00,2013-12-08 07:08:00,
2013-12-08 00:13:00,43.1,28.9,30.16,WNW,289,0.0,0.0,57,0.00,,---,0.00,VWS V15.00,2013-12-08 07:13:00,
2013-12-08 00:18:00,43.1,28.9,30.16,WNW,289,0.0,0.0,57,0.00,,---,0.00,VWS V15.00,2013-12-08 07:18:00,
2013-12-08 00:23:00,42.9,29.6,30.16,WNW,289,0.0,0.0,59,0.00,,---,0.00,VWS V15.00,2013-12-08 07:23:00,
2013-12-08 00:28:00,42.7,29.8,30.16,WNW,289,0.0,0.0,60,0.00,,---,0.00,VWS V15.00,2013-12-08 07:28:00,
2013-12-08 00:33:00,42.5,30.0,30.16,WNW,289,0.0,0.0,61,0.00,,---,0.00,VWS V15.00,2013-12-08 07:33:00,
2013-12-08 00:38:00,42.5,30.0,30.16,WNW,289,0.0,0.0,61,0.00,,---,0.00,VWS V15.00,2013-12-08 07:38:00,
2013-12-08 00:43:00,42.4,29.9,30.16,WNW,289,0.0,0.0,61,0.00,,---,0.00,VWS V15.00,2013-12-08 07:43:00,
2013-12-08 00:48:00,42.2,30.1,30.16,WNW,289,0.0,0.0,62,0.00,,---,0.00,VWS V15.00,2013-12-08 07:48:00,
2013-12-08 00:53:00,42.0,30.3,30.16,WNW,289,0.0,0.0,63,0.00,,---,0.00,VWS V15.00,2013-12-08 07:53:00,
2013-12-08 00:58:00,41.8,30.1,30.15,WNW,289,0.0,0.0,63,0.00,,---,0.00,VWS V15.00,2013-12-08 07:58:00,
2013-12-08 01:03:00,41.6,30.7,30.15,WNW,289,0.0,0.0,65,0.00,,---,0.00,VWS V15.00,2013-12-08 08:03:00,
2013-12-08 01:08:00,41.5,31.0,30.15,WNW,289,0.0,0.0,66,0.00,,---,0.00,VWS V15.00,2013-12-08 08:08:00,
2013-12-08 01:13:00,41.4,31.3,30.16,WNW,289,0.0,0.0,67,0.00,,---,0.00,VWS V15.00,2013-12-08 08:13:00,
2013-12-08 01:17:00,41.3,31.2,30.15,WNW,289,0.0,0.0,67,0.00,,---,0.00,VWS V15.00,2013-12-08 08:17:00,
2013-12-08 01:22:00,41.3,31.5,30.15,WNW,289,0.0,0.0,68,0.00,,---,0.00,VWS V15.00,2013-12-08 08:22:00,
2013-12-08 01:27:00,41.5,31.7,30.15,WNW,289,0.0,0.0,68,0.00,,---,0.00,VWS V15.00,2013-12-08 08:27:00,
2013-12-08 01:32:00,41.7,32.3,30.15,WNW,289,0.0,1.0,69,0.00,,---,0.00,VWS V15.00,2013-12-08 08:32:00,
2013-12-08 01:37:00,42.0,32.6,30.15,WNW,289,0.0,0.0,69,0.00,,---,0.00,VWS V15.00,2013-12-08 08:37:00,
2013-12-08 01:42:00,42.4,33.0,30.15,WNW,289,0.0,0.0,69,0.00,,---,0.00,VWS V15.00,2013-12-08 08:42:00,
2013-12-08 01:47:00,42.7,33.2,30.15,WNW,289,0.0,0.0,69,0.00,,---,0.00,VWS V15.00,2013-12-08 08:47:00,
2013-12-08 01:52:00,43.2,33.7,30.15,WNW,301,0.0,3.0,69,0.00,,---,0.00,VWS V15.00,2013-12-08 08:52:00,
2013-12-08 01:57:00,44.2,34.7,30.16,WNW,286,2.0,10.0,69,0.00,,---,0.00,VWS V15.00,2013-12-08 08:57:00,
2013-12-08 02:02:00,45.1,34.8,30.15,SW,235,0.0,3.0,67,0.00,,---,0.00,VWS V15.00,2013-12-08 09:02:00,
2013-12-08 02:07:00,45.7,35.0,30.15,WSW,243,0.0,4.0,66,0.00,,---,0.00,VWS V15.00,2013-12-08 09:07:00,
2013-12-08 02:12:00,46.0,35.3,30.15,WSW,247,0.0,2.0,66,0.00,,---,0.00,VWS V15.00,2013-12-08 09:12:00,
2013-12-08 02:17:00,46.0,34.9,30.15,SW,233,0.0,3.0,65,0.00,,---,0.00,VWS V15.00,2013-12-08 09:17:00,
2013-12-08 02:22:00,45.8,34.7,30.15,SW,233,0.0,0.0,65,0.00,,---,0.00,VWS V15.00,2013-12-08 09:22:00,
2013-12-08 02:27:00,45.1,34.4,30.15,WSW,257,0.0,0.0,66,0.00,,---,0.00,VWS V15.00,2013-12-08 09:27:00,
2013-12-08 02:32:00,44.7,34.8,30.15,WSW,257,0.0,0.0,68,0.00,,---,0.00,VWS V15.00,2013-12-08 09:32:00,
2013-12-08 02:37:00,44.5,34.6,30.15,WSW,257,0.0,1.0,68,0.00,,---,0.00,VWS V15.00,2013-12-08 09:37:00,
2013-12-08 02:42:00,44.4,34.9,30.15,WSW,257,0.0,0.0,69,0.00,,---,0.00,VWS V15.00,2013-12-08 09:42:00,
2013-12-08 02:47:00,44.3,35.2,30.15,WSW,257,0.0,0.0,70,0.00,,---,0.00,VWS V15.00,2013-12-08 09:47:00,
2013-12-08 02:52:00,44.2,35.0,30.15,WNW,282,0.0,0.0,70,0.00,,---,0.00,VWS V15.00,2013-12-08 09:52:00,
2013-12-08 02:57:00,44.2,35.4,30.15,NW,311,0.0,5.0,71,0.00,,---,0.00,VWS V15.00,2013-12-08 09:57:00,
2013-12-08 03:02:00,44.2,35.4,30.15,NW,311,0.0,0.0,71,0.00,,---,0.00,VWS V15.00,2013-12-08 10:02:00,
2013-12-08 03:07:00,44.1,35.3,30.15,NW,311,0.0,0.0,71,0.00,,---,0.00,VWS V15.00,2013-12-08 10:07:00,
2013-12-08 03:12:00,43.9,35.1,30.15,NW,311,0.0,0.0,71,0.00,,---,0.00,VWS V15.00,2013-12-08 10:12:00,
2013-12-08 03:17:00,43.9,35.5,30.15,NW,311,0.0,0.0,72,0.00,,---,0.00,VWS V15.00,2013-12-08 10:17:00,
2013-12-08 03:22:00,44.0,35.6,30.15,NW,311,0.0,0.0,72,0.00,,---,0.00,VWS V15.00,2013-12-08 10:22:00,
2013-12-08 03:27:00,44.1,35.7,30.15,NW,311,0.0,0.0,72,0.00,,---,0.00,VWS V15.00,2013-12-08 10:27:00,
2013-12-08 03:32:00,44.2,35.8,30.15,NW,311,0.0,0.0,72,0.00,,---,0.00,VWS V15.00,2013-12-08 10:32:00,
2013-12-08 03:37:00,44.2,35.8,30.15,NW,311,0.0,0.0,72,0.00,,---,0.00,VWS V15.00,2013-12-08 10:37:00,
2013-12-08 03:42:00,44.3,35.9,30.15,NW,311,0.0,0.0,72,0.00,,---,0.00,VWS V15.00,2013-12-08 10:42:00,
2013-12-08 03:47:00,44.5,36.0,30.15,NW,311,0.0,0.0,72,0.00,,---,0.00,VWS V15.00,2013-12-08 10:47:00,
2013-12-08 03:52:00,44.5,36.0,30.15,NW,311,0.0,0.0,72,0.00,,---,0.00,VWS V15.00,2013-12-08 10:52:00,
2013-12-08 03:57:00,44.6,36.2,30.15,NW,311,0.0,0.0,72,0.00,,---,0.00,VWS V15.00,2013-12-08 10:57:00,
2013-12-08 04:02:00,44.8,36.3,30.15,WNW,298,0.0,2.0,72,0.00,,---,0.00,VWS V15.00,2013-12-08 11:02:00,
2013-12-08 04:07:00,45.0,36.2,30.15,WNW,298,0.0,1.0,71,0.00,,---,0.00,VWS V15.00,2013-12-08 11:07:00,
2013-12-08 04:12:00,45.2,36.4,30.15,WNW,298,0.0,0.0,71,0.00,,---,0.00,VWS V15.00,2013-12-08 11:12:00,
2013-12-08 04:17:00,45.3,36.5,30.14,WNW,298,0.0,0.0,71,0.00,,---,0.00,VWS V15.00,2013-12-08 11:17:00,
2013-12-08 04:22:00,45.3,36.1,30.14,WSW,254,0.0,4.0,70,0.00,,---,0.00,VWS V15.00,2013-12-08 11:22:00,
2013-12-08 04:27:00,45.5,36.3,30.14,NW,304,0.0,2.0,70,0.00,,---,0.00,VWS V15.00,2013-12-08 11:27:00,
2013-12-08 04:32:00,45.5,36.3,30.14,NW,304,0.0,0.0,70,0.00,,---,0.00,VWS V15.00,2013-12-08 11:32:00,
2013-12-08 04:37:00,45.4,36.2,30.14,NW,304,0.0,0.0,70,0.00,,---,0.00,VWS V15.00,2013-12-08 11:37:00,
2013-12-08 04:42:00,45.2,36.4,30.13,NW,304,0.0,0.0,71,0.00,,---,0.00,VWS V15.00,2013-12-08 11:42:00,
2013-12-08 04:47:00,45.1,36.3,30.13,NW,304,0.0,1.0,71,0.00,,---,0.00,VWS V15.00,2013-12-08 11:47:00,
2013-12-08 04:52:00,45.0,36.2,30.13,NW,304,0.0,0.0,71,0.00,,---,0.00,VWS V15.00,2013-12-08 11:52:00,
2013-12-08 04:57:00,44.9,36.1,30.13,NW,304,0.0,0.0,71,0.00,,---,0.00,VWS V15.00,2013-12-08 11:57:00,
2013-12-08 05:02:00,45.0,36.2,30.12,NW,304,0.0,0.0,71,0.00,,---,0.00,VWS V15.00,2013-12-08 12:02:00,
2013-12-08 05:07:00,45.0,36.2,30.13,NW,304,0.0,0.0,71,0.00,,---,0.00,VWS V15.00,2013-12-08 12:07:00,
2013-12-08 05:12:00,45.0,36.2,30.13,NW,304,0.0,0.0,71,0.00,,---,0.00,VWS V15.00,2013-12-08 12:12:00,
2013-12-08 05:17:00,45.0,36.2,30.13,NW,304,0.0,0.0,71,0.00,,---,0.00,VWS V15.00,2013-12-08 12:17:00,
2013-12-08 05:22:00,45.0,36.5,30.13,WNW,302,0.0,4.0,72,0.00,,---,0.00,VWS V15.00,2013-12-08 12:22:00,
2013-12-08 05:27:00,45.2,36.0,30.13,NW,308,0.0,0.0,70,0.00,,---,0.00,VWS V15.00,2013-12-08 12:27:00,
2013-12-08 05:32:00,45.4,36.2,30.13,NW,308,0.0,0.0,70,0.00,,---,0.00,VWS V15.00,2013-12-08 12:32:00,
2013-12-08 05:37:00,45.4,36.2,30.13,NW,308,0.0,0.0,70,0.00,,---,0.00,VWS V15.00,2013-12-08 12:37:00,
2013-12-08 05:42:00,45.3,36.1,30.14,NW,308,0.0,0.0,70,0.00,,---,0.00,VWS V15.00,2013-12-08 12:42:00,
2013-12-08 05:47:00,45.2,36.4,30.14,NW,308,0.0,0.0,71,0.00,,---,0.00,VWS V15.00,2013-12-08 12:47:00,
2013-12-08 05:52:00,45.1,36.6,30.14,NW,308,0.0,0.0,72,0.00,,---,0.00,VWS V15.00,2013-12-08 12:52:00,
2013-12-08 05:57:00,45.1,36.6,30.14,NW,308,0.0,0.0,72,0.00,,---,0.00,VWS V15.00,2013-12-08 12:57:00,
2013-12-08 06:02:00,45.1,36.6,30.14,NW,308,0.0,0.0,72,0.00,,---,0.00,VWS V15.00,2013-12-08 13:02:00,
2013-12-08 06:07:00,45.0,36.5,30.14,NW,308,0.0,0.0,72,0.00,,---,0.00,VWS V15.00,2013-12-08 13:07:00,
2013-12-08 06:12:00,45.0,36.5,30.14,NW,308,0.0,1.0,72,0.00,,---,0.00,VWS V15.00,2013-12-08 13:12:00,
2013-12-08 06:17:00,45.0,36.5,30.14,West,273,0.0,0.0,72,0.00,,---,0.00,VWS V15.00,2013-12-08 13:17:00,
2013-12-08 06:22:00,45.1,36.6,30.13,West,273,0.0,0.0,72,0.00,,---,0.00,VWS V15.00,2013-12-08 13:22:00,
2013-12-08 06:27:00,45.0,36.5,30.14,West,273,0.0,0.0,72,0.00,,---,0.00,VWS V15.00,2013-12-08 13:27:00,
2013-12-08 06:32:00,44.9,36.4,30.14,West,273,0.0,0.0,72,0.00,,---,0.00,VWS V15.00,2013-12-08 13:32:00,
2013-12-08 06:37:00,44.9,36.4,30.14,West,273,0.0,0.0,72,0.00,,---,0.00,VWS V15.00,2013-12-08 13:37:00,
2013-12-08 06:42:00,44.7,36.6,30.15,West,273,0.0,0.0,73,0.00,,---,0.00,VWS V15.00,2013-12-08 13:42:00,
2013-12-08 06:47:00,44.6,36.8,30.15,West,273,0.0,0.0,74,0.00,,---,0.00,VWS V15.00,2013-12-08 13:47:00,
2013-12-08 06:52:00,44.5,36.7,30.14,West,273,0.0,0.0,74,0.00,,---,0.00,VWS V15.00,2013-12-08 13:52:00,
2013-12-08 06:57:00,44.5,36.7,30.15,West,273,0.0,0.0,74,0.00,,---,0.00,VWS V15.00,2013-12-08 13:57:00,
2013-12-08 07:02:00,44.4,37.0,30.15,West,273,0.0,0.0,75,0.00,,---,0.00,VWS V15.00,2013-12-08 14:02:00,
2013-12-08 07:07:00,44.3,36.9,30.15,West,273,0.0,0.0,75,0.00,,---,0.00,VWS V15.00,2013-12-08 14:07:00,
2013-12-08 07:12:00,44.2,37.1,30.15,West,273,0.0,0.0,76,0.00,,---,0.00,VWS V15.00,2013-12-08 14:12:00,
2013-12-08 07:17:00,44.1,37.0,30.15,West,273,0.0,0.0,76,0.00,,---,0.00,VWS V15.00,2013-12-08 14:17:00,
2013-12-08 07:22:00,44.0,36.9,30.15,West,273,0.0,0.0,76,0.00,,---,0.00,VWS V15.00,2013-12-08 14:22:00,
2013-12-08 07:27:00,43.8,36.7,30.15,West,273,0.0,0.0,76,0.00,,---,0.00,VWS V15.00,2013-12-08 14:27:00,
2013-12-08 07:32:00,43.8,37.1,30.15,West,273,0.0,0.0,77,0.00,,---,0.00,VWS V15.00,2013-12-08 14:32:00,
2013-12-08 07:37:00,43.6,36.9,30.15,West,273,0.0,0.0,77,0.00,,---,0.00,VWS V15.00,2013-12-08 14:37:00,
2013-12-08 07:42:00,43.6,36.5,30.16,West,273,0.0,0.0,76,0.00,,---,0.00,VWS V15.00,2013-12-08 14:42:00,
2013-12-08 07:47:00,43.6,36.5,30.16,West,273,0.0,0.0,76,0.00,,---,0.00,VWS V15.00,2013-12-08 14:47:00,
2013-12-08 07:52:00,43.6,36.5,30.16,West,273,0.0,0.0,76,0.00,,---,0.00,VWS V15.00,2013-12-08 14:52:00,
2013-12-08 07:57:00,43.7,36.6,30.16,West,273,0.0,0.0,76,0.00,,---,0.00,VWS V15.00,2013-12-08 14:57:00,
2013-12-08 08:02:00,43.8,36.7,30.16,West,273,0.0,0.0,76,0.00,,---,0.00,VWS V15.00,2013-12-08 15:02:00,
2013-12-08 08:07:00,43.9,36.8,30.16,West,273,0.0,0.0,76,0.00,,---,0.00,VWS V15.00,2013-12-08 15:07:00,
2013-12-08 08:12:00,44.0,36.9,30.16,West,273,0.0,0.0,76,0.00,,---,0.00,VWS V15.00,2013-12-08 15:12:00,
2013-12-08 08:17:00,44.0,36.6,30.16,West,273,0.0,0.0,75,0.00,,---,0.00,VWS V15.00,2013-12-08 15:17:00,
2013-12-08 08:22:00,44.2,36.8,30.17,West,273,0.0,0.0,75,0.00,,---,0.00,VWS V15.00,2013-12-08 15:22:00,
2013-12-08 08:27:00,44.3,36.5,30.17,West,273,0.0,0.0,74,0.00,,---,0.00,VWS V15.00,2013-12-08 15:27:00,
2013-12-08 08:32:00,44.5,36.4,30.17,West,273,0.0,0.0,73,0.00,,---,0.00,VWS V15.00,2013-12-08 15:32:00,
2013-12-08 08:37:00,44.6,36.2,30.16,West,273,0.0,0.0,72,0.00,,---,0.00,VWS V15.00,2013-12-08 15:37:00,
2013-12-08 08:42:00,44.8,36.3,30.17,West,273,0.0,0.0,72,0.00,,---,0.00,VWS V15.00,2013-12-08 15:42:00,
2013-12-08 08:47:00,45.0,36.5,30.17,West,273,0.0,0.0,72,0.00,,---,0.00,VWS V15.00,2013-12-08 15:47:00,
2013-12-08 08:52:00,45.7,36.5,30.17,West,273,0.0,0.0,70,0.00,,---,0.00,VWS V15.00,2013-12-08 15:52:00,
2013-12-08 08:57:00,46.1,36.1,30.17,West,273,0.0,0.0,68,0.00,,---,0.00,VWS V15.00,2013-12-08 15:57:00,
2013-12-08 09:02:00,46.2,36.6,30.17,South,182,0.0,0.0,69,0.00,,---,0.00,VWS V15.00,2013-12-08 16:02:00,
2013-12-08 09:07:00,46.8,36.4,30.17,South,182,0.0,0.0,67,0.00,,---,0.00,VWS V15.00,2013-12-08 16:07:00,
2013-12-08 09:12:00,47.6,36.4,30.17,South,182,0.0,0.0,65,0.00,,---,0.00,VWS V15.00,2013-12-08 16:12:00,
2013-12-08 09:17:00,47.7,36.5,30.18,South,182,0.0,0.0,65,0.00,,---,0.00,VWS V15.00,2013-12-08 16:17:00,
2013-12-08 09:22:00,47.5,36.3,30.18,South,182,0.0,0.0,65,0.00,,---,0.00,VWS V15.00,2013-12-08 16:22:00,
2013-12-08 09:27:00,47.5,36.3,30.18,South,182,0.0,0.0,65,0.00,,---,0.00,VWS V15.00,2013-12-08 16:27:00,
2013-12-08 09:32:00,47.7,36.5,30.18,South,182,0.0,0.0,65,0.00,,---,0.00,VWS V15.00,2013-12-08 16:32:00,
2013-12-08 09:37:00,47.7,36.1,30.18,South,182,0.0,0.0,64,0.00,,---,0.00,VWS V15.00,2013-12-08 16:37:00,
2013-12-08 09:42:00,47.8,36.2,30.18,South,182,0.0,0.0,64,0.00,,---,0.00,VWS V15.00,2013-12-08 16:42:00,
2013-12-08 09:47:00,48.3,36.7,30.18,South,182,0.0,0.0,64,0.00,,---,0.00,VWS V15.00,2013-12-08 16:47:00,
2013-12-08 09:52:00,48.4,36.4,30.18,South,182,0.0,0.0,63,0.00,,---,0.00,VWS V15.00,2013-12-08 16:52:00,
2013-12-08 09:57:00,49.1,37.1,30.18,South,182,0.0,0.0,63,0.00,,---,0.00,VWS V15.00,2013-12-08 16:57:00,
2013-12-08 10:02:00,49.5,36.6,30.18,South,182,0.0,0.0,61,0.00,,---,0.00,VWS V15.00,2013-12-08 17:02:00,
2013-12-08 10:07:00,49.4,36.5,30.18,South,182,0.0,0.0,61,0.00,,---,0.00,VWS V15.00,2013-12-08 17:07:00,
2013-12-08 10:12:00,49.7,37.2,30.18,South,182,0.0,0.0,62,0.00,,---,0.00,VWS V15.00,2013-12-08 17:12:00,
2013-12-08 10:17:00,49.7,36.8,30.18,South,182,0.0,1.0,61,0.00,,---,0.00,VWS V15.00,2013-12-08 17:17:00,
2013-12-08 10:22:00,50.2,37.7,30.18,South,182,0.0,0.0,62,0.00,,---,0.00,VWS V15.00,2013-12-08 17:22:00,
2013-12-08 10:27:00,50.2,36.9,30.18,South,182,0.0,3.0,60,0.00,,---,0.00,VWS V15.00,2013-12-08 17:27:00,
2013-12-08 10:32:00,50.3,37.0,30.18,South,182,0.0,0.0,60,0.00,,---,0.00,VWS V15.00,2013-12-08 17:32:00,
2013-12-08 10:37:00,50.7,37.3,30.18,SSW,205,6.0,6.0,60,0.00,,---,0.00,VWS V15.00,2013-12-08 17:37:00,
2013-12-08 10:42:00,50.5,37.6,30.18,SW,220,0.0,2.0,61,0.00,,---,0.00,VWS V15.00,2013-12-08 17:42:00,
2013-12-08 10:47:00,50.7,37.3,30.18,SW,217,0.0,3.0,60,0.00,,---,0.00,VWS V15.00,2013-12-08 17:47:00,
2013-12-08 10:52:00,50.9,37.5,30.18,SW,235,0.0,4.0,60,0.00,,---,0.00,VWS V15.00,2013-12-08 17:52:00,
2013-12-08 10:57:00,50.9,37.5,30.18,SSW,209,0.0,1.0,60,0.00,,---,0.00,VWS V15.00,2013-12-08 17:57:00,
2013-12-08 11:02:00,51.3,37.5,30.18,SSW,201,0.0,4.0,59,0.00,,---,0.00,VWS V15.00,2013-12-08 18:02:00,
2013-12-08 11:07:00,51.2,37.4,30.18,SW,215,0.0,2.0,59,0.00,,---,0.00,VWS V15.00,2013-12-08 18:07:00,
2013-12-08 11:12:00,52.0,37.7,30.18,SW,223,0.0,6.0,58,0.00,,---,0.00,VWS V15.00,2013-12-08 18:12:00,
2013-12-08 11:17:00,51.9,37.6,30.17,SW,229,0.0,6.0,58,0.00,,---,0.00,VWS V15.00,2013-12-08 18:17:00,
2013-12-08 11:22:00,52.6,37.8,30.17,SW,225,0.0,4.0,57,0.00,,---,0.00,VWS V15.00,2013-12-08 18:22:00,
2013-12-08 11:27:00,52.6,37.4,30.17,SW,231,0.0,5.0,56,0.00,,---,0.00,VWS V15.00,2013-12-08 18:27:00,
2013-12-08 11:32:00,52.3,37.1,30.17,SW,229,1.0,11.0,56,0.00,,---,0.00,VWS V15.00,2013-12-08 18:32:00,
2013-12-08 11:37:00,52.6,37.8,30.17,SSW,202,0.0,7.0,57,0.00,,---,0.00,VWS V15.00,2013-12-08 18:37:00,
2013-12-08 11:42:00,52.7,37.5,30.17,SSW,213,0.0,11.0,56,0.00,,---,0.00,VWS V15.00,2013-12-08 18:42:00,
2013-12-08 11:47:00,52.8,37.5,30.17,SW,230,6.0,9.0,56,0.00,,---,0.00,VWS V15.00,2013-12-08 18:47:00,
2013-12-08 11:52:00,53.5,37.8,30.16,WSW,245,0.0,11.0,55,0.00,,---,0.00,VWS V15.00,2013-12-08 18:52:00,
2013-12-08 11:57:00,54.1,38.3,30.16,SW,226,3.0,5.0,55,0.00,,---,0.00,VWS V15.00,2013-12-08 18:57:00,
2013-12-08 12:02:00,54.6,37.8,30.16,SW,236,3.0,4.0,53,0.00,,---,0.00,VWS V15.00,2013-12-08 19:02:00,
2013-12-08 12:07:00,53.4,37.7,30.16,SW,235,4.0,4.0,55,0.00,,---,0.00,VWS V15.00,2013-12-08 19:07:00,
2013-12-08 12:12:00,53.3,37.6,30.16,SSW,209,0.0,5.0,55,0.00,,---,0.00,VWS V15.00,2013-12-08 19:12:00,
2013-12-08 12:17:00,53.4,37.7,30.15,WSW,248,0.0,5.0,55,0.00,,---,0.00,VWS V15.00,2013-12-08 19:17:00,
2013-12-08 12:22:00,54.1,37.4,30.15,SW,230,5.0,9.0,53,0.00,,---,0.00,VWS V15.00,2013-12-08 19:22:00,
2013-12-08 12:27:00,53.9,37.7,30.14,WSW,245,0.0,1.0,54,0.00,,---,0.00,VWS V15.00,2013-12-08 19:27:00,
2013-12-08 12:32:00,54.1,37.8,30.14,West,277,0.0,8.0,54,0.00,,---,0.00,VWS V15.00,2013-12-08 19:32:00,
2013-12-08 12:37:00,53.7,37.5,30.13,WSW,256,0.0,1.0,54,0.00,,---,0.00,VWS V15.00,2013-12-08 19:37:00,
2013-12-08 12:42:00,53.3,37.1,30.13,SSW,209,0.0,5.0,54,0.00,,---,0.00,VWS V15.00,2013-12-08 19:42:00,
2013-12-08 12:47:00,53.4,37.7,30.13,SW,233,0.0,5.0,55,0.00,,---,0.00,VWS V15.00,2013-12-08 19:47:00,
2013-12-08 12:52:00,53.8,37.1,30.12,SW,235,0.0,6.0,53,0.00,,---,0.00,VWS V15.00,2013-12-08 19:52:00,
2013-12-08 12:57:00,53.7,37.0,30.12,SW,229,0.0,6.0,53,0.00,,---,0.00,VWS V15.00,2013-12-08 19:57:00,
2013-12-08 13:02:00,53.7,37.5,30.12,SW,225,0.0,0.0,54,0.00,,---,0.00,VWS V15.00,2013-12-08 20:02:00,
2013-12-08 13:07:00,54.8,37.5,30.11,West,270,0.0,2.0,52,0.00,,---,0.00,VWS V15.00,2013-12-08 20:07:00,
2013-12-08 13:12:00,55.1,36.8,30.11,SSW,209,4.0,4.0,50,0.00,,---,0.00,VWS V15.00,2013-12-08 20:12:00,
2013-12-08 13:17:00,54.4,36.7,30.11,WSW,244,0.0,5.0,51,0.00,,---,0.00,VWS V15.00,2013-12-08 20:17:00,
2013-12-08 13:22:00,55.0,37.2,30.11,West,265,0.0,1.0,51,0.00,,---,0.00,VWS V15.00,2013-12-08 20:22:00,
2013-12-08 13:27:00,54.5,37.2,30.11,WSW,258,0.0,0.0,52,0.00,,---,0.00,VWS V15.00,2013-12-08 20:27:00,
2013-12-08 13:32:00,55.0,37.2,30.11,West,261,0.0,3.0,51,0.00,,---,0.00,VWS V15.00,2013-12-08 20:32:00,
2013-12-08 13:37:00,54.5,37.7,30.10,WSW,252,0.0,1.0,53,0.00,,---,0.00,VWS V15.00,2013-12-08 20:37:00,
2013-12-08 13:42:00,54.2,36.5,30.10,SW,228,1.0,2.0,51,0.00,,---,0.00,VWS V15.00,2013-12-08 20:42:00,
2013-12-08 13:47:00,54.9,37.6,30.10,WNW,292,4.0,7.0,52,0.00,,---,0.00,VWS V15.00,2013-12-08 20:47:00,
2013-12-08 13:52:00,54.6,36.8,30.09,WNW,286,0.0,5.0,51,0.00,,---,0.00,VWS V15.00,2013-12-08 20:52:00,
2013-12-08 13:57:00,54.5,37.2,30.09,WNW,302,0.0,0.0,52,0.00,,---,0.00,VWS V15.00,2013-12-08 20:57:00,
2013-12-08 14:02:00,54.4,37.2,30.09,WNW,287,4.0,4.0,52,0.00,,---,0.00,VWS V15.00,2013-12-08 21:02:00,
2013-12-08 14:07:00,54.1,36.9,30.09,NW,307,0.0,0.0,52,0.00,,---,0.00,VWS V15.00,2013-12-08 21:07:00,
2013-12-08 14:12:00,55.5,37.7,30.09,WNW,296,0.0,3.0,51,0.00,,---,0.00,VWS V15.00,2013-12-08 21:12:00,
2013-12-08 14:17:00,55.0,37.2,30.09,WNW,292,0.0,2.0,51,0.00,,---,0.00,VWS V15.00,2013-12-08 21:17:00,
2013-12-08 14:22:00,54.7,37.4,30.09,WNW,286,3.0,8.0,52,0.00,,---,0.00,VWS V15.00,2013-12-08 21:22:00,
2013-12-08 14:27:00,54.7,37.4,30.09,NNW,348,0.0,4.0,52,0.00,,---,0.00,VWS V15.00,2013-12-08 21:27:00,
2013-12-08 14:32:00,54.8,37.5,30.09,WNW,296,0.0,1.0,52,0.00,,---,0.00,VWS V15.00,2013-12-08 21:32:00,
2013-12-08 14:37:00,54.9,37.6,30.09,WNW,294,0.0,1.0,52,0.00,,---,0.00,VWS V15.00,2013-12-08 21:37:00,
2013-12-08 14:41:00,54.6,37.3,30.09,WNW,292,0.0,7.0,52,0.00,,---,0.00,VWS V15.00,2013-12-08 21:41:00,
2013-12-08 14:46:00,54.2,37.5,30.09,WNW,297,4.0,9.0,53,0.00,,---,0.00,VWS V15.00,2013-12-08 21:46:00,
2013-12-08 14:51:00,54.2,37.5,30.09,West,274,4.0,5.0,53,0.00,,---,0.00,VWS V15.00,2013-12-08 21:51:00,
2013-12-08 14:56:00,55.6,37.8,30.09,NNW,348,0.0,4.0,51,0.00,,---,0.00,VWS V15.00,2013-12-08 21:56:00,
2013-12-08 15:01:00,55.8,38.0,30.09,WSW,255,0.0,3.0,51,0.00,,---,0.00,VWS V15.00,2013-12-08 22:01:00,
2013-12-08 15:06:00,56.5,37.6,30.09,West,271,0.0,2.0,49,0.00,,---,0.00,VWS V15.00,2013-12-08 22:06:00,
2013-12-08 15:11:00,56.6,37.7,30.09,West,259,0.0,1.0,49,0.00,,---,0.00,VWS V15.00,2013-12-08 22:11:00,
2013-12-08 15:16:00,56.3,37.4,30.08,SW,234,3.0,5.0,49,0.00,,---,0.00,VWS V15.00,2013-12-08 22:16:00,
2013-12-08 15:21:00,55.6,37.3,30.08,WSW,246,3.0,6.0,50,0.00,,---,0.00,VWS V15.00,2013-12-08 22:21:00,
2013-12-08 15:26:00,56.3,37.4,30.08,SW,226,0.0,0.0,49,0.00,,---,0.00,VWS V15.00,2013-12-08 22:26:00,
2013-12-08 15:31:00,56.5,37.6,30.08,SW,226,0.0,1.0,49,0.00,,---,0.00,VWS V15.00,2013-12-08 22:31:00,
2013-12-08 15:36:00,56.5,37.6,30.08,North,9,0.0,3.0,49,0.00,,---,0.00,VWS V15.00,2013-12-08 22:36:00,
2013-12-08 15:41:00,57.4,37.9,30.08,West,279,1.0,7.0,48,0.00,,---,0.00,VWS V15.00,2013-12-08 22:41:00,
2013-12-08 15:46:00,56.4,37.5,30.08,WNW,291,2.0,7.0,49,0.00,,---,0.00,VWS V15.00,2013-12-08 22:46:00,
2013-12-08 15:51:00,56.7,37.8,30.07,WSW,249,0.0,1.0,49,0.00,,---,0.00,VWS V15.00,2013-12-08 22:51:00,
2013-12-08 15:56:00,56.1,37.2,30.07,SW,221,1.0,1.0,49,0.00,,---,0.00,VWS V15.00,2013-12-08 22:56:00,
2013-12-08 16:01:00,55.6,37.3,30.07,SW,218,0.0,1.0,50,0.00,,---,0.00,VWS V15.00,2013-12-08 23:01:00,
2013-12-08 16:06:00,55.4,37.1,30.07,SW,230,0.0,1.0,50,0.00,,---,0.00,VWS V15.00,2013-12-08 23:06:00,
2013-12-08 16:11:00,55.2,37.4,30.07,SSE,165,5.0,5.0,51,0.00,,---,0.00,VWS V15.00,2013-12-08 23:11:00,
2013-12-08 16:16:00,55.1,37.8,30.07,WSW,252,2.0,3.0,52,0.00,,---,0.00,VWS V15.00,2013-12-08 23:16:00,
2013-12-08 16:21:00,55.3,37.5,30.07,WNW,296,0.0,3.0,51,0.00,,---,0.00,VWS V15.00,2013-12-08 23:21:00,
2013-12-08 16:26:00,55.7,37.9,30.07,WNW,296,0.0,3.0,51,0.00,,---,0.00,VWS V15.00,2013-12-08 23:26:00,
2013-12-08 16:31:00,55.6,37.8,30.07,West,265,0.0,3.0,51,0.00,,---,0.00,VWS V15.00,2013-12-08 23:31:00,
2013-12-08 16:36:00,55.1,37.3,30.07,West,267,0.0,4.0,51,0.00,,---,0.00,VWS V15.00,2013-12-08 23:36:00,
2013-12-08 16:41:00,54.6,37.3,30.07,WSW,252,0.0,1.0,52,0.00,,---,0.00,VWS V15.00,2013-12-08 23:41:00,
2013-12-08 16:46:00,54.2,37.5,30.07,WSW,252,0.0,0.0,53,0.00,,---,0.00,VWS V15.00,2013-12-08 23:46:00,
2013-12-08 16:51:00,53.9,38.1,30.07,WSW,252,0.0,0.0,55,0.00,,---,0.00,VWS V15.00,2013-12-08 23:51:00,
2013-12-08 16:56:00,53.7,37.9,30.07,WSW,252,0.0,1.0,55,0.00,,---,0.00,VWS V15.00,2013-12-08 23:56:00,
2013-12-08 17:01:00,53.3,38.0,30.07,WSW,252,0.0,0.0,56,0.00,,---,0.00,VWS V15.00,2013-12-09 00:01:00,
2013-12-08 17:06:00,53.1,38.3,30.07,WSW,252,0.0,0.0,57,0.00,,---,0.00,VWS V15.00,2013-12-09 00:06:00,
2013-12-08 17:11:00,53.0,38.2,30.07,WSW,252,0.0,0.0,57,0.00,,---,0.00,VWS V15.00,2013-12-09 00:11:00,
2013-12-08 17:16:00,52.8,38.5,30.07,WSW,252,0.0,0.0,58,0.00,,---,0.00,VWS V15.00,2013-12-09 00:16:00,
2013-12-08 17:21:00,52.7,38.3,30.07,WSW,252,0.0,0.0,58,0.00,,---,0.00,VWS V15.00,2013-12-09 00:21:00,
2013-12-08 17:26:00,52.6,39.1,30.07,WSW,252,0.0,0.0,60,0.00,,---,0.00,VWS V15.00,2013-12-09 00:26:00,
2013-12-08 17:31:00,52.3,38.8,30.07,WSW,252,0.0,0.0,60,0.00,,---,0.00,VWS V15.00,2013-12-09 00:31:00,
2013-12-08 17:36:00,52.1,38.7,30.07,WSW,252,0.0,0.0,60,0.00,,---,0.00,VWS V15.00,2013-12-09 00:36:00,
2013-12-08 17:41:00,51.9,39.3,30.07,WSW,252,0.0,0.0,62,0.00,,---,0.00,VWS V15.00,2013-12-09 00:41:00,
2013-12-08 17:46:00,51.5,38.9,30.07,WSW,252,0.0,0.0,62,0.00,,---,0.00,VWS V15.00,2013-12-09 00:46:00,
2013-12-08 17:51:00,51.3,39.2,30.07,WSW,252,0.0,0.0,63,0.00,,---,0.00,VWS V15.00,2013-12-09 00:51:00,
2013-12-08 17:56:00,51.0,39.3,30.07,WSW,252,0.0,0.0,64,0.00,,---,0.00,VWS V15.00,2013-12-09 00:56:00,
2013-12-08 18:01:00,50.7,39.0,30.07,WSW,252,0.0,0.0,64,0.00,,---,0.00,VWS V15.00,2013-12-09 01:01:00,
2013-12-08 18:06:00,50.4,39.1,30.07,WSW,252,0.0,0.0,65,0.00,,---,0.00,VWS V15.00,2013-12-09 01:06:00,
2013-12-08 18:11:00,50.2,39.3,30.07,WSW,252,0.0,0.0,66,0.00,,---,0.00,VWS V15.00,2013-12-09 01:11:00,
2013-12-08 18:16:00,49.9,39.4,30.07,WSW,252,0.0,0.0,67,0.00,,---,0.00,VWS V15.00,2013-12-09 01:16:00,
2013-12-08 18:21:00,49.6,39.1,30.07,WSW,252,0.0,0.0,67,0.00,,---,0.00,VWS V15.00,2013-12-09 01:21:00,
2013-12-08 18:26:00,49.4,39.3,30.08,WSW,252,0.0,0.0,68,0.00,,---,0.00,VWS V15.00,2013-12-09 01:26:00,
2013-12-08 18:31:00,49.1,39.4,30.08,WSW,252,0.0,0.0,69,0.00,,---,0.00,VWS V15.00,2013-12-09 01:31:00,
2013-12-08 18:36:00,49.0,39.7,30.08,WSW,252,0.0,0.0,70,0.00,,---,0.00,VWS V15.00,2013-12-09 01:36:00,
2013-12-08 18:41:00,48.8,39.5,30.08,WSW,252,0.0,0.0,70,0.00,,---,0.00,VWS V15.00,2013-12-09 01:41:00,
2013-12-08 18:46:00,48.7,39.7,30.08,WSW,252,0.0,0.0,71,0.00,,---,0.00,VWS V15.00,2013-12-09 01:46:00,
2013-12-08 18:51:00,48.7,39.7,30.08,WSW,252,0.0,0.0,71,0.00,,---,0.00,VWS V15.00,2013-12-09 01:51:00,
2013-12-08 18:56:00,48.8,39.8,30.08,WSW,252,0.0,2.0,71,0.00,,---,0.00,VWS V15.00,2013-12-09 01:56:00,
2013-12-08 19:01:00,49.2,39.5,30.08,WNW,298,3.0,7.0,69,0.00,,---,0.00,VWS V15.00,2013-12-09 02:01:00,
2013-12-08 19:06:00,49.6,39.5,30.08,NW,306,0.0,1.0,68,0.00,,---,0.00,VWS V15.00,2013-12-09 02:06:00,
2013-12-08 19:11:00,49.7,39.6,30.08,WNW,284,0.0,0.0,68,0.00,,---,0.00,VWS V15.00,2013-12-09 02:11:00,
2013-12-08 19:45:00,49.6,39.9,30.10,WNW,292,0.0,1.0,69,0.00,,---,0.00,VWS V15.00,2013-12-09 02:45:00,
2013-12-08 19:50:00,49.7,40.0,30.10,West,278,2.0,3.0,69,0.00,,---,0.00,VWS V15.00,2013-12-09 02:50:00,
2013-12-08 19:55:00,50.0,39.9,30.10,West,280,0.0,0.0,68,0.00,,---,0.00,VWS V15.00,2013-12-09 02:55:00,
2013-12-08 20:00:00,50.3,39.8,30.10,West,277,0.0,3.0,67,0.00,,---,0.00,VWS V15.00,2013-12-09 03:00:00,
2013-12-08 20:05:00,50.8,39.9,30.10,WSW,240,0.0,0.0,66,0.00,,---,0.00,VWS V15.00,2013-12-09 03:05:00,
2013-12-08 20:10:00,51.0,40.1,30.11,SW,232,0.0,1.0,66,0.00,,---,0.00,VWS V15.00,2013-12-09 03:10:00,
2013-12-08 20:15:00,51.1,39.8,30.11,SW,229,2.0,6.0,65,0.00,,---,0.00,VWS V15.00,2013-12-09 03:15:00,
2013-12-08 20:20:00,51.1,39.8,30.11,SSW,210,0.0,3.0,65,0.00,,---,0.00,VWS V15.00,2013-12-09 03:20:00,
2013-12-08 20:25:00,50.8,40.2,30.11,SSW,194,0.0,0.0,67,0.00,,---,0.00,VWS V15.00,2013-12-09 03:25:00,
2013-12-08 20:30:00,50.2,40.1,30.12,WSW,240,0.0,1.0,68,0.00,,---,0.00,VWS V15.00,2013-12-09 03:30:00,
2013-12-08 20:35:00,49.7,40.3,30.11,SW,227,0.0,0.0,70,0.00,,---,0.00,VWS V15.00,2013-12-09 03:35:00,
2013-12-08 20:40:00,49.4,40.4,30.12,SW,225,0.0,0.0,71,0.00,,---,0.00,VWS V15.00,2013-12-09 03:40:00,
2013-12-08 20:45:00,49.2,40.2,30.12,SW,225,0.0,0.0,71,0.00,,---,0.00,VWS V15.00,2013-12-09 03:45:00,
2013-12-08 20:50:00,49.1,40.5,30.12,SW,225,0.0,0.0,72,0.00,,---,0.00,VWS V15.00,2013-12-09 03:50:00,
2013-12-08 20:55:00,48.9,40.3,30.12,SW,225,0.0,0.0,72,0.00,,---,0.00,VWS V15.00,2013-12-09 03:55:00,
2013-12-08 21:00:00,48.8,40.5,30.12,SW,225,0.0,1.0,73,0.00,,---,0.00,VWS V15.00,2013-12-09 04:00:00,
2013-12-08 21:05:00,48.7,40.5,30.11,SW,225,0.0,3.0,73,0.00,,---,0.00,VWS V15.00,2013-12-09 04:05:00,
2013-12-08 21:10:00,48.7,40.1,30.11,SW,225,0.0,0.0,72,0.00,,---,0.00,VWS V15.00,2013-12-09 04:10:00,
2013-12-08 21:15:00,48.8,40.2,30.12,SW,225,0.0,0.0,72,0.00,,---,0.00,VWS V15.00,2013-12-09 04:15:00,
2013-12-08 21:20:00,49.1,39.8,30.12,West,271,2.0,4.0,70,0.00,,---,0.00,VWS V15.00,2013-12-09 04:20:00,
2013-12-08 21:25:00,49.5,39.8,30.11,SW,227,0.0,0.0,69,0.00,,---,0.00,VWS V15.00,2013-12-09 04:25:00,
2013-12-08 21:30:00,49.6,39.5,30.11,SW,227,0.0,0.0,68,0.00,,---,0.00,VWS V15.00,2013-12-09 04:30:00,
2013-12-08 21:35:00,49.4,39.3,30.11,West,280,0.0,3.0,68,0.00,,---,0.00,VWS V15.00,2013-12-09 04:35:00,
2013-12-08 21:40:00,49.3,39.2,30.11,WSW,247,0.0,0.0,68,0.00,,---,0.00,VWS V15.00,2013-12-09 04:40:00,
2013-12-08 21:45:00,49.1,39.0,30.11,WSW,249,0.0,0.0,68,0.00,,---,0.00,VWS V15.00,2013-12-09 04:45:00,
2013-12-08 21:50:00,48.9,38.8,30.11,WSW,240,0.0,0.0,68,0.00,,---,0.00,VWS V15.00,2013-12-09 04:50:00,
2013-12-08 21:55:00,48.6,38.9,30.11,WSW,240,0.0,1.0,69,0.00,,---,0.00,VWS V15.00,2013-12-09 04:55:00,
2013-12-08 22:00:00,47.9,39.7,30.12,WSW,240,0.0,2.0,73,0.00,,---,0.00,VWS V15.00,2013-12-09 05:00:00,
2013-12-08 22:01:00,47.8,39.6,30.12,SSW,209,0.0,2.0,73,0.00,,---,0.00,VWS V15.00,2013-12-09 05:01:00,
2013-12-08 22:02:00,47.7,39.8,30.12,South,189,0.0,2.0,74,0.00,,---,0.00,VWS V15.00,2013-12-09 05:02:00,
2013-12-08 22:07:00,47.2,39.7,30.11,South,184,0.0,3.0,75,0.00,,---,0.00,VWS V15.00,2013-12-09 05:07:00,
2013-12-08 22:12:00,46.9,40.1,30.11,SSW,206,0.0,1.0,77,0.00,,---,0.00,VWS V15.00,2013-12-09 05:12:00,
2013-12-08 22:17:00,46.8,40.0,30.12,SSW,197,0.0,0.0,77,0.00,,---,0.00,VWS V15.00,2013-12-09 05:17:00,
2013-12-08 22:22:00,46.7,40.2,30.12,SSE,157,0.0,3.0,78,0.00,,---,0.00,VWS V15.00,2013-12-09 05:22:00,
2013-12-08 22:27:00,46.6,40.1,30.13,SW,227,0.0,0.0,78,0.00,,---,0.00,VWS V15.00,2013-12-09 05:27:00,
2013-12-08 22:32:00,46.5,40.0,30.13,SW,227,0.0,0.0,78,0.00,,---,0.00,VWS V15.00,2013-12-09 05:32:00,
2013-12-08 22:37:00,46.4,39.9,30.13,SW,227,0.0,0.0,78,0.00,,---,0.00,VWS V15.00,2013-12-09 05:37:00,
2013-12-08 22:41:00,46.3,39.8,30.13,SW,227,0.0,0.0,78,0.00,,---,0.00,VWS V15.00,2013-12-09 05:41:00,
2013-12-08 22:46:00,46.1,39.6,30.13,SSW,210,0.0,0.0,78,0.00,,---,0.00,VWS V15.00,2013-12-09 05:46:00,
2013-12-08 22:51:00,46.0,39.5,30.13,SSW,210,0.0,0.0,78,0.00,,---,0.00,VWS V15.00,2013-12-09 05:51:00,
2013-12-08 22:56:00,45.8,38.7,30.13,SSW,210,0.0,0.0,76,0.00,,---,0.00,VWS V15.00,2013-12-09 05:56:00,
2013-12-08 23:01:00,45.7,38.2,30.14,SSW,210,0.0,2.0,75,0.00,,---,0.00,VWS V15.00,2013-12-09 06:01:00,
2013-12-08 23:06:00,45.6,37.8,30.13,SSW,210,0.0,0.0,74,0.00,,---,0.00,VWS V15.00,2013-12-09 06:06:00,
2013-12-08 23:11:00,45.5,37.4,30.13,SSW,210,0.0,0.0,73,0.00,,---,0.00,VWS V15.00,2013-12-09 06:11:00,
2013-12-08 23:16:00,45.5,37.4,30.14,SSW,210,0.0,0.0,73,0.00,,---,0.00,VWS V15.00,2013-12-09 06:16:00,
2013-12-08 23:21:00,45.5,37.0,30.14,SSW,210,0.0,0.0,72,0.00,,---,0.00,VWS V15.00,2013-12-09 06:21:00,
2013-12-08 23:26:00,45.5,37.4,30.14,SSW,210,0.0,0.0,73,0.00,,---,0.00,VWS V15.00,2013-12-09 06:26:00,
2013-12-08 23:31:00,45.4,37.6,30.14,SSW,210,0.0,0.0,74,0.00,,---,0.00,VWS V15.00,2013-12-09 06:31:00,
2013-12-08 23:36:00,45.2,37.4,30.14,SSW,210,0.0,0.0,74,0.00,,---,0.00,VWS V15.00,2013-12-09 06:36:00,
2013-12-08 23:41:00,45.1,37.7,30.14,SSW,210,0.0,0.0,75,0.00,,---,0.00,VWS V15.00,2013-12-09 06:41:00,
2013-12-08 23:46:00,44.7,35.9,30.14,SSW,210,0.0,1.0,71,0.00,,---,0.00,VWS V15.00,2013-12-09 06:46:00,
2013-12-08 23:51:00,44.7,35.5,30.14,SSW,210,0.0,0.0,70,0.00,,---,0.00,VWS V15.00,2013-12-09 06:51:00,
2013-12-08 23:56:00,44.7,35.2,30.15,West,262,0.0,2.0,69,0.00,,---,0.00,VWS V15.00,2013-12-09 06:56:00,